SCP
0 0 0 0 0 0 0 0 0 0 0 0 0 0 0 0 0 0 0 0 0 0 0 0 0 0 0 0 0 0 0 0 0 0 0 0 0 0 0 0 0 0 0 0 0 0 0 0 0 0 0 0 0 0
0 0 0 0 0 0 0 0 0 0 0 0 0 0 0 0 0 0 0 0 0 0 0 0 0 0 0 0 0 0 0 0 0 0 0 0 0 0 0 0 0 0 0 0 0 0 0 0 0 0 0 0 0 0
0 0 0 0 0 0 0 0 0 0 0 0 0 0 0 0 0 0 0 0 0 0 0 0 0 0 0 0 0 0 0 0 0 0 0 0 0 0 0 0 0 0 0 0 0 0 0 0 0 0 0 0 0 0
0 0 0 0 0 0 0 0 0 0 0 0 0 0 0 0 0 0 0 0 0 0 0 0 0 0 0 0 0 0 0 0 0 0 0 0 0 0 0 0 0 0 0 0 0 0 0 0 0 0 0 0 0 0
0 0 0 0 0 0 0 0 0 0 0 0 0 0 0 0 0 0 0 0 0 0 0 0 0 0 0 0 0 0 0 0 0 0 0 0 0 0 0 0 0 0 0 0 0 0 0 0 0 0 0 0 0 0
0 0 0 0 0 0 0 0 0 0 0 0 0 0 0 0 0 0 0 0 0 0 0 0 0 0 0 0 0 0 0 0 0 0 0 0 0 0 0 0 0 0 0 0 0 0 0 0 0 0 0 0 0 0
0 0 0 0 0 0 0 0 0 0 0 0 0 0 0 0 0 0 0 0 0 0 0 0 0 0 0 0 0 0 0 0 0 0 0 0 0 0 0 0 0 0 0 0 0 0 0 0 0 0 0 0 0 0
0 0 0 0 0 0 0 0 0 0 0 0 0 0 0 0 0 0 0 0 0 0 0 0 0 0 0 0 0 0 0 0 0 0 0 0 0 0 0 0 0 0 0 0 0 0 0 0 0 0 0 0 0 0
0 0 0 0 0 0 0 0 0 0 0 0 0 0 0 0 0 0 0 0 0 0 0 0 0 0 0 0 0 0 0 0 0 0 0 0 0 0 0 0 0 0 0 0 0 0 0 0 0 0 0 0 0 0
0 0 0 0 0 0 0 0 0 0 0 0 0 0 0 0 0 0 0 0 0 0 0 0 0 0 0 0 0 0 0 0 0 0 0 0 0 0 0 0 0 0 0 0 0 0 0 0 0 0 0 0 0 0
0 0 0 0 0 0 0 0 0 0 0 0 0 0 0 0 0 0 0 0 0 0 0 0 0 0 0 0 0 0 0 0 0 0 0 0 0 0 0 0 0 0 0 0 0 0 0 0 0 0 0 0 0 0
0 0 0 0 0 0 0 0 0 0 0 0 0 0 0 0 0 0 0 0 0 0 0 0 0 0 0 0 0 0 0 0 0 0 0 0 0 0 0 0 0 0 0 0 0 0 0 0 0 0 0 0 0 -0
0 0 0 0 0 0 0 0 0 0 0 0 0 0 0 0 0 0 0 0 0 0 0 0 0 0 0 0 0 0 0 0 0 0 0 0 0 0 0 0 0 0 0 0 0 0 0 0 0 0 0 0 0 0
0 0 0 0 0 0 0 0 0 0 0 0 0 0 0 0 0 0 0 0 0 0 0 0 0 0 0 0 0 0 0 0 0 0 0 0 0 0 0 0 0 0 0 0 0 0 0 0 0 0 0 0 0 0
0 0 0 0 0 0 0 0 0 0 0 0 0 0 0 0 0 0 0 0 0 0 0 0 0 0 0 0 0 0 0 0 0 0 0 0 0 0 0 0 0 0 0 0 0 0 0 0 0 0 0 0 0 0
0 0 0 0 0 0 0 0 0 0 0 0 0 0 0 0 0 0 0 0 0 0 0 0 0 0 0 0 0 0 0 0 0 0 0 0 0 0 0 0 0 0 0 0 0 0 0 0 0 0 0 0 0 0
0 0 0 0 0 0 0 0 0 0 0 0 0 0 0 0 0 0 0 0 0 0 0 0 0 0 0 0 0 0 0 0 0 0 0 0 0 0 0 0 0 0 0 0 0 0 0 0 0 0 0 0 0 0
0 0 0 0 0 0 0 0 0 0 0 0 0 0 0 0 0 0 0 0 0 0 0 0 0 0 0 0 0 0 0 0 0 0 0 0 0 0 0 0 0 0 0 0 0 0 0 0 0 0 0 0 0 0
0 0 0 0 0 0 0 0 0 0 0 0 0 0 0 0 0 0 0 0 0 0 0 0 0 0 0 0 0 0 0 0 0 0 0 0 0 0 0 0 0 0 0 0 0 0 0 0 0 0 0 0 0 0
0 0 0 0 0 0 0 0 0 0 0 0 0 0 0 0 0 0 0 0 0 0 0 0 0 0 0 0 0 0 -0 0 0 0 0 0 0 0 0 0 0 0 0 0 0 0 0 0 0 0 0 0 -0 -0
0 0 0 0 0 0 0 0 0 0 0 0 0 0 0 0 0 0 0 0 0 0 0 0 0 0 0 0 0 0 0 0 0 0 0 0 0 0 0 0 0 0 0 0 0 0 0 0 0 0 0 0 -0 0
0 0 0 0 0 0 0 0 -0 0 0 0 0 -0 -0 0 0 0 0 0 0 0 0 0 0 0 0 0 0 0 0 0 0 0 0 0 0 0 0 0 0 0 0 0 0 0 0 0 0 0 0 0 0 0
0 0 0 0 0 0 0 0 0 0 0 0 0 0 0 0 -0 0 0 -0 0 0 0 0 0 0 0 0 0 0 0 0 0 0 0 0 0 0 0 0 0 0 0 0 0 0 0 0 0 0 0 0 -0 0
0 0 0 0 0 0 0 0 0 0 0 0 0 0 0 -0 0 0 0 0 0 0 0 0 0 0 0 0 0 0 0 0 0 0 0 0 0 0 0 0 0 0 0 0 0 0 0 0 0 0 0 0 -0 0
0 0 0 0 0 0 0 0 0 0 0 0 0 -0 -0 0 -0 -0 -0 0 0 0 0 0 0 0 0 0 0 0 0 0 0 0 0 0 0 0 0 0 0 0 0 0 0 0 0 0 0 0 0 0 0 0
0 0 0 0 0 0 0 0 0 0 0 0 -0 0 -0 -0 0 0 0 0 0 0 0 -0 -0 -0 -0 -0 -0 0 0 0 0 0 0 0 0 0 0 0 0 0 0 0 0 0 0 0 0 0 0 0 0 0
0 0 0 0 0 0 0 0 0 0 0 -0 -0 0 0 0 0 0 0 0 0 0 -0 -0 -0 0 0 0 0 0 0 0 0 0 0 0 0 0 0 0 0 0 0 0 0 0 0 0 0 0 0 0 0 0
0 0 0 0 0 0 0 0 0 0 0 0 0 0 0 0 0 0 0 0 -0 0 -0 -0 -0 0 0 0 0 0 0 0 0 0 0 0 0 0 0 0 0 0 -0 -0 0 0 0 0 0 0 0 0 0 0
0 0 0 0 0 0 0 0 0 0 0 0 0 0 0 0 -0 -0 -0 -0 -0 -0 0 0 -0 -0 -0 -0 -0 -0 0 0 0 0 0 0 0 0 0 0 0 0 0 0 0 0 0 0 0 0 0 0 0 0
0 0 0 0 0 0 0 0 0 0 -0 0 0 0 0 0 0 -0 0 0 0 -0 0 0 0 0 0 0 -0 0 -0 -0 0 0 0 0 0 0 0 0 0 0 0 0 0 0 0 0 0 0 0 0 0 0
0 0 0 0 0 0 0 0 0 0 0 0 0 0 0 0 0 0 0 0 -0 0 0 0 0 0 0 0 0 0 -0 0 -0 -0 0 0 0 0 0 0 0 0 0 0 0 0 0 0 0 0 0 0 0 0
0 0 0 0 0 0 -0 0 0 0 0 0 0 0 0 0 0 0 0 -0 0 0 0 0 0 -0 -0 0 0 0 0 0 0 0 -0 -0 0 0 -0 0 -0 0 0 0 0 0 0 0 0 0 -0 0 -0 0
0 0 0 0 0 -0 0 0 0 0 0 0 0 0 0 0 0 0 0 0 0 0 0 0 -0 0 -0 -0 -0 0 0 0 0 0 0 -0 0 0 0 -0 -0 -0 0 0 0 0 0 0 0 -0 -0 -0 -0 0
Wind_Speed_500mb
35 36 35 37 38 38 37 36 34 32 29 25 22 21 19 17 16 20 20 10 14 8 8 7 11 8 3 6 3 12 6 13 9 7 7 6 6 8 2 6 9 13 11 6 6 4 12 7 9 10 10 4 9 19
33 31 30 30 30 34 35 35 34 31 28 25 23 21 19 17 15 25 20 14 16 14 16 10 5 3 12 7 7 9 6 5 4 7 2 5 2 2 8 5 7 1 12 11 14 11 9 4 2 7 2 9 10 11
32 30 29 27 26 28 32 33 33 31 28 25 23 22 20 18 17 25 17 17 14 9 24 33 19 7 12 15 15 5 3 6 8 8 6 3 2 6 4 4 5 10 3 6 7 9 15 25 14 8 13 19 13 14
31 28 25 22 20 21 26 28 30 30 28 26 24 22 21 20 20 28 17 11 10 4 4 2 19 21 15 12 15 7 12 12 9 8 7 5 2 2 6 7 4 2 6 6 3 9 26 20 14 10 4 8 10 10
32 29 25 22 19 16 19 28 29 28 27 25 23 22 22 22 22 28 18 13 12 3 4 6 11 17 16 15 12 12 14 15 7 5 5 6 7 4 3 4 5 5 7 6 8 2 13 12 12 7 5 5 10 10
28 29 27 23 19 16 16 26 28 26 24 23 22 21 21 22 23 23 13 18 18 17 5 4 3 21 27 21 13 19 11 5 6 6 7 8 9 3 5 5 8 20 7 17 13 11 9 8 13 16 11 10 12 12
29 24 23 24 22 16 14 19 23 24 23 21 20 19 20 23 28 19 8 11 25 14 6 7 7 18 28 14 10 11 15 10 5 5 8 8 4 7 6 11 23 30 10 14 11 23 16 16 13 20 18 17 17 20
30 32 26 27 24 19 16 17 18 20 21 20 18 17 18 21 23 19 10 9 18 17 8 4 9 9 29 12 9 15 13 15 9 7 6 6 4 11 6 19 33 28 20 24 27 24 24 24 15 15 16 19 21 24
23 29 28 24 23 21 19 18 17 19 19 19 19 17 15 14 12 16 11 6 15 7 5 3 8 8 28 20 16 18 14 3 8 12 10 10 3 8 15 28 31 31 32 33 34 29 20 16 17 16 19 24 29 32
24 24 24 23 21 18 16 18 18 19 20 23 27 8 9 15 21 17 9 8 11 11 7 8 7 6 20 24 17 12 12 7 4 12 9 6 8 24 36 26 9 11 18 38 31 22 17 17 16 19 18 18 23 28
25 29 27 24 17 15 15 17 17 21 27 18 6 5 20 22 11 6 5 6 9 5 14 14 15 5 4 7 10 16 8 6 5 10 11 5 6 28 41 50 36 25 33 27 28 27 22 19 17 10 16 23 28 33
33 28 21 23 18 19 16 17 20 26 16 13 16 17 16 6 4 5 4 6 7 10 13 18 25 22 6 4 5 1 7 3 8 1 6 5 10 20 24 36 30 41 40 38 32 25 18 11 5 11 21 32 39 46
23 24 32 30 28 24 22 22 24 23 29 16 7 6 6 4 4 9 10 6 5 8 9 18 5 19 12 7 5 5 4 8 5 2 7 8 3 29 28 51 49 42 39 35 28 19 12 1 12 21 32 32 35 44
22 26 31 35 35 25 22 29 26 24 11 6 3 4 6 3 7 9 7 2 9 17 17 32 14 6 5 5 5 6 9 5 3 4 9 6 33 46 52 53 52 45 36 30 23 15 6 6 15 23 28 29 35 46
28 33 31 27 26 30 24 29 23 14 7 5 6 6 7 18 13 16 22 14 8 14 11 16 13 8 1 4 6 2 3 9 10 8 6 26 16 42 52 50 48 43 37 29 20 11 3 11 17 19 29 31 36 38
33 29 22 23 26 32 32 26 18 8 5 5 4 4 11 10 22 17 13 12 10 11 9 8 6 4 5 6 7 12 8 9 2 6 19 18 1 39 46 43 40 37 32 24 12 7 3 5 15 22 26 34 32 41
23 18 28 21 26 29 36 25 12 3 5 6 11 18 25 15 8 7 9 12 10 7 5 8 3 5 8 5 6 3 5 6 8 22 20 20 27 29 27 27 21 19 17 11 8 3 6 6 18 26 29 33 35 39
21 26 30 23 37 39 29 19 9 9 12 16 12 15 18 19 8 4 3 7 5 9 12 5 6 2 4 5 2 2 13 16 16 19 22 7 9 12 13 25 12 6 8 9 9 7 11 16 29 28 25 30 34 44
27 26 32 28 33 17 8 9 6 6 17 16 20 24 21 15 15 21 19 14 10 13 13 11 8 6 6 7 17 3 13 13 16 18 11 11 11 11 11 10 9 26 29 21 11 12 15 26 28 22 18 25 33 47
27 23 28 34 30 6 5 6 8 6 7 6 14 15 13 20 25 19 18 21 22 13 12 8 11 13 7 11 6 9 2 8 6 5 16 17 12 17 31 5 12 9 5 6 12 14 22 26 16 15 23 32 42 51
27 25 21 19 11 2 1 3 7 8 8 7 13 15 12 18 21 30 28 28 25 16 16 27 36 39 35 41 44 37 34 27 31 23 21 28 23 19 16 16 25 20 27 25 21 17 24 22 29 33 35 41 45 43
29 25 16 9 4 2 5 4 8 15 7 10 14 10 11 11 23 32 34 28 40 48 49 50 54 54 55 55 53 52 47 43 41 42 40 38 41 43 36 35 33 30 26 15 15 21 29 34 40 41 43 39 42 23
21 11 4 3 2 4 5 4 4 4 3 7 6 4 7 8 12 25 12 27 42 49 52 57 59 61 62 63 60 59 53 48 51 53 51 50 46 41 39 37 36 35 33 35 36 30 26 29 36 33 33 30 22 6
10 3 1 2 4 6 4 2 2 5 7 6 4 7 6 7 12 11 8 36 39 8 13 14 19 22 27 35 34 41 51 59 65 64 62 60 56 53 52 50 45 41 38 35 34 33 32 32 30 30 25 18 9 20
4 2 2 5 5 5 4 5 7 5 6 5 3 8 9 6 2 5 5 6 20 12 2 8 17 25 39 47 48 49 37 33 32 34 37 28 53 66 60 54 44 40 44 43 39 41 39 35 25 29 24 16 30 19
2 5 10 7 8 8 7 5 7 7 5 6 11 10 3 2 4 8 4 10 14 30 34 44 49 46 47 51 52 53 57 54 54 51 45 45 44 45 36 29 35 35 42 51 48 48 49 43 34 33 26 31 32 23
4 7 7 9 10 15 11 11 18 8 5 5 4 10 1 3 7 4 8 24 46 44 51 53 57 55 52 48 43 41 44 47 61 69 66 59 51 48 49 52 46 48 27 27 44 54 52 52 44 42 35 38 41 28
10 9 9 22 12 17 11 10 6 4 3 6 1 3 6 4 4 13 27 42 42 50 59 53 40 37 38 41 40 38 37 38 34 43 64 78 76 75 73 68 64 59 59 50 28 43 54 47 42 42 39 46 43 36
10 16 19 16 13 7 5 3 3 9 9 12 4 4 6 7 29 32 28 39 43 41 44 41 33 29 32 36 39 38 41 37 43 44 49 54 54 69 73 76 81 66 60 55 46 32 34 34 31 25 37 48 51 38
6 21 9 7 5 4 9 9 11 19 13 9 7 10 16 20 14 17 31 40 39 36 32 32 33 34 35 34 45 37 31 33 34 38 34 40 41 23 22 41 55 49 48 44 44 40 37 35 29 24 28 46 60 43
14 10 7 7 7 5 3 18 8 14 16 16 23 20 23 14 15 22 39 49 51 50 47 44 40 36 34 34 29 31 32 24 14 23 40 28 21 27 29 35 50 48 42 46 48 43 37 41 29 13 30 59 51 24
5 6 8 6 4 16 21 6 14 4 5 11 19 31 35 16 18 34 54 62 61 56 48 46 50 50 44 47 35 17 22 26 23 17 23 18 20 7 14 32 43 44 45 49 45 38 42 43 34 24 50 55 49 34
8 11 14 12 3 6 12 9 12 10 2 12 19 29 33 26 14 33 53 61 64 60 52 53 50 42 42 44 36 31 13 12 10 17 31 27 17 14 16 24 29 38 45 55 47 35 31 49 43 26 55 67 46 32
Wind_Direction_500mb
219 210 216 218 220 218 216 215 215 218 219 219 222 228 230 228 224 196 180 198 226 234 253 356 39 27 36 48 120 339 70 16 46 80 125 221 183 238 178 238 178 184 146 181 99 143 278 199 124 167 222 187 343 12
210 204 205 211 215 214 211 208 209 211 212 213 213 220 224 217 210 181 178 186 204 223 233 240 222 277 316 357 4 24 112 114 99 93 59 107 280 17 145 254 359 253 178 181 167 211 256 176 46 162 340 76 55 25
193 196 200 206 214 215 209 205 204 207 208 210 211 212 214 210 196 179 167 202 221 249 262 251 234 253 258 292 285 267 116 126 121 97 130 168 207 121 130 227 6 343 125 80 87 325 269 260 220 176 117 90 80 17
188 190 192 197 207 208 196 200 201 204 207 209 210 209 207 204 193 176 154 157 170 210 263 286 226 203 223 275 295 279 184 149 139 148 122 120 184 162 196 187 139 249 52 133 341 344 75 87 122 139 78 37 12 12
186 193 195 197 192 197 194 191 196 201 206 208 209 208 204 200 195 186 153 169 187 193 256 269 172 198 226 258 278 272 243 235 205 174 114 212 210 132 349 72 212 168 177 145 200 167 128 119 108 86 54 47 71 48
187 183 189 193 197 197 201 193 194 198 203 206 207 206 203 197 188 168 190 219 225 224 304 338 251 193 205 236 269 195 194 250 208 197 205 221 206 166 137 179 249 135 107 163 166 156 133 138 98 77 70 50 63 53
184 188 189 197 197 198 200 191 194 196 197 199 202 203 200 193 184 178 170 182 201 188 225 297 288 193 206 213 191 193 197 212 218 217 231 247 210 169 128 192 223 277 274 189 167 161 116 84 67 79 67 47 27 10
206 192 192 190 194 199 198 193 192 193 190 188 188 190 191 191 188 170 141 150 175 182 197 195 267 163 195 180 198 192 191 207 226 236 251 229 230 183 236 234 234 234 243 156 139 129 120 115 103 60 33 12 8 10
169 174 172 182 191 190 192 189 183 179 177 172 164 157 148 155 147 172 174 171 176 171 207 233 167 220 181 193 190 182 191 146 216 204 228 172 241 218 224 207 214 223 220 163 136 131 125 99 73 46 22 4 359 1
177 167 169 166 164 167 169 165 167 165 158 151 140 114 127 135 141 145 160 191 198 205 222 244 259 245 189 184 189 182 181 203 180 231 182 157 247 238 239 248 224 252 183 163 137 120 108 90 69 44 14 7 355 345
181 181 176 171 163 156 150 152 155 150 141 131 102 90 136 140 142 161 172 178 196 232 205 228 216 220 51 144 199 203 185 174 180 257 151 215 262 236 248 243 255 203 174 153 138 122 112 97 71 24 352 344 335 329
196 185 183 182 174 170 168 163 151 152 134 125 115 119 134 141 153 151 222 263 177 218 203 205 209 197 173 184 173 145 179 100 223 197 145 246 238 235 243 242 188 155 142 139 143 134 116 97 33 339 332 333 330 324
184 186 190 182 177 173 169 164 160 148 135 117 103 119 157 139 70 176 190 238 225 227 219 177 123 169 166 181 117 82 158 226 295 27 225 226 235 173 185 156 146 149 148 139 129 121 110 150 300 318 326 333 332 338
164 165 168 172 168 160 161 167 161 153 124 100 119 35 147 247 230 199 217 228 331 350 351 167 125 117 114 112 146 129 233 105 243 223 215 232 170 158 155 155 155 152 151 145 137 137 143 282 310 337 350 343 343 345
164 154 148 153 165 171 165 168 165 151 105 118 151 192 229 237 268 304 320 283 1 19 53 121 98 112 93 141 182 198 236 226 200 219 259 313 289 180 165 161 154 147 147 142 147 161 191 302 331 358 6 5 359 354
145 149 158 177 184 173 171 163 164 127 63 56 279 273 274 278 265 277 320 352 358 354 51 57 83 102 203 200 185 207 200 187 25 11 21 45 223 175 150 150 149 149 152 151 173 190 252 278 331 323 324 334 353 360
147 175 165 154 160 167 178 182 168 111 192 241 247 238 256 292 303 287 306 31 26 59 53 29 79 178 299 229 221 35 80 125 59 41 54 85 92 107 114 118 130 138 143 162 187 281 329 302 311 319 298 313 331 339
126 141 160 165 136 132 141 150 144 191 234 245 258 247 237 220 229 238 255 324 323 124 136 168 352 17 307 265 64 175 78 43 22 17 28 8 201 155 133 131 120 278 184 217 235 295 321 331 335 319 290 298 319 331
134 128 152 146 142 136 142 174 202 236 236 248 259 274 275 278 257 261 264 240 194 187 169 179 213 216 233 79 133 156 43 9 347 357 346 315 275 243 206 133 263 249 241 215 219 281 303 331 343 326 286 297 322 332
134 125 122 147 150 154 170 192 210 256 265 266 280 288 283 275 264 258 246 228 217 186 180 202 203 216 207 103 12 294 334 342 313 339 312 345 301 327 223 310 332 102 168 207 235 267 300 335 331 290 309 319 329 330
140 149 139 139 153 81 206 219 231 253 298 275 291 304 280 252 267 250 247 240 229 219 224 239 249 254 264 275 279 286 287 274 273 266 263 264 276 271 294 299 270 263 288 291 299 309 298 317 318 313 314 316 324 325
140 129 115 91 87 8 273 245 272 305 271 273 291 262 262 260 248 243 248 238 236 242 245 252 258 263 267 269 268 266 265 265 265 261 254 253 248 255 258 253 267 269 263 269 278 285 293 298 300 306 309 314 321 319
130 127 85 87 282 263 264 273 281 298 313 289 287 280 253 230 238 261 220 239 248 256 259 261 266 269 271 278 281 281 278 275 270 268 267 264 259 255 257 261 255 258 267 270 272 274 275 294 302 304 307 310 324 303
147 136 112 240 234 269 246 259 261 296 287 283 276 271 254 242 258 243 234 251 262 257 220 247 271 287 278 270 275 277 275 279 271 268 268 266 257 251 258 261 258 255 258 263 265 271 278 284 291 294 291 313 165 146
331 221 244 260 235 261 229 224 197 247 250 174 204 269 248 226 312 277 247 97 115 122 107 293 305 315 310 300 295 286 273 266 259 261 250 249 250 247 255 261 258 255 255 257 261 264 268 274 272 280 273 204 180 190
328 228 206 232 211 205 212 155 224 241 244 216 233 256 342 58 242 256 50 62 19 339 324 320 318 313 306 298 293 283 273 260 255 261 250 250 253 247 243 247 249 252 252 251 259 261 267 267 257 256 255 203 208 219
296 261 234 248 273 297 292 278 288 265 260 252 306 344 36 245 245 77 20 332 332 325 320 314 308 302 295 294 294 295 295 282 259 254 253 250 248 243 246 241 233 238 228 252 248 254 261 260 256 248 238 211 208 217
253 276 231 286 249 257 244 266 246 258 14 39 77 348 303 296 301 353 326 314 313 312 305 308 306 299 292 293 295 294 299 297 291 267 257 250 247 243 242 240 241 236 235 237 263 248 246 248 251 247 228 214 208 190
253 287 319 313 326 296 304 338 10 44 23 341 295 288 284 280 314 320 329 322 316 317 315 310 304 302 294 292 288 290 296 293 281 261 255 258 257 250 245 238 235 238 253 250 245 244 239 240 232 236 232 221 199 192
280 334 329 303 290 286 10 31 22 344 107 58 13 322 300 299 324 347 350 349 342 338 338 332 319 311 314 315 306 303 304 288 276 261 266 268 263 255 262 230 220 228 228 223 216 218 222 220 202 203 223 210 197 209
307 323 295 254 248 269 299 313 27 70 61 32 15 355 354 331 332 352 359 5 13 15 17 21 21 12 353 340 321 309 301 300 305 321 311 296 249 240 234 229 219 218 213 205 209 217 219 208 194 174 214 194 196 201
255 238 276 276 15 288 300 143 151 141 38 19 15 11 8 3 343 356 11 17 21 21 22 9 354 3 7 8 8 341 292 289 283 268 184 247 258 238 247 204 191 198 206 212 215 215 213 210 201 208 192 188 201 213
235 274 277 300 191 266 187 175 196 163 127 15 18 16 16 4 354 354 11 26 24 22 13 11 29 27 9 11 15 20 14 312 274 232 209 193 191 221 218 187 190 203 209 207 203 202 215 228 207 196 191 198 215 218
Wind_Speed_850mb
35 36 35 37 38 38 37 36 34 32 29 25 22 21 19 17 16 20 20 10 14 8 8 7 11 8 3 6 3 12 6 13 9 7 7 6 6 8 2 6 9 13 11 6 6 4 12 7 9 10 10 4 9 19
33 31 30 30 30 34 35 35 34 31 28 25 23 21 19 17 15 25 20 14 16 14 16 10 5 3 12 7 7 9 6 5 4 7 2 5 2 2 8 5 7 1 12 11 14 11 9 4 2 7 2 9 10 11
32 30 29 27 26 28 32 33 33 31 28 25 23 22 20 18 17 25 17 17 14 9 24 33 19 7 12 15 15 5 3 6 8 8 6 3 2 6 4 4 5 10 3 6 7 9 15 25 14 8 13 19 13 14
31 28 25 22 20 21 26 28 30 30 28 26 24 22 21 20 20 28 17 11 10 4 4 2 19 21 15 12 15 7 12 12 9 8 7 5 2 2 6 7 4 2 6 6 3 9 26 20 14 10 4 8 10 10
32 29 25 22 19 16 19 28 29 28 27 25 23 22 22 22 22 28 18 13 12 3 4 6 11 17 16 15 12 12 14 15 7 5 5 6 7 4 3 4 5 5 7 6 8 2 13 12 12 7 5 5 10 10
28 29 27 23 19 16 16 26 28 26 24 23 22 21 21 22 23 23 13 18 18 17 5 4 3 21 27 21 13 19 11 5 6 6 7 8 9 3 5 5 8 20 7 17 13 11 9 8 13 16 11 10 12 12
29 24 23 24 22 16 14 19 23 24 23 21 20 19 20 23 28 19 8 11 25 14 6 7 7 18 28 14 10 11 15 10 5 5 8 8 4 7 6 11 23 30 10 14 11 23 16 16 13 20 18 17 17 20
30 32 26 27 24 19 16 17 18 20 21 20 18 17 18 21 23 19 10 9 18 17 8 4 9 9 29 12 9 15 13 15 9 7 6 6 4 11 6 19 33 28 20 24 27 24 24 24 15 15 16 19 21 24
23 29 28 24 23 21 19 18 17 19 19 19 19 17 15 14 12 16 11 6 15 7 5 3 8 8 28 20 16 18 14 3 8 12 10 10 3 8 15 28 31 31 32 33 34 29 20 16 17 16 19 24 29 32
24 24 24 23 21 18 16 18 18 19 20 23 27 8 9 15 21 17 9 8 11 11 7 8 7 6 20 24 17 12 12 7 4 12 9 6 8 24 36 26 9 11 18 38 31 22 17 17 16 19 18 18 23 28
25 29 27 24 17 15 15 17 17 21 27 18 6 5 20 22 11 6 5 6 9 5 14 14 15 5 4 7 10 16 8 6 5 10 11 5 6 28 41 50 36 25 33 27 28 27 22 19 17 10 16 23 28 33
33 28 21 23 18 19 16 17 20 26 16 13 16 17 16 6 4 5 4 6 7 10 13 18 25 22 6 4 5 1 7 3 8 1 6 5 10 20 24 36 30 41 40 38 32 25 18 11 5 11 21 32 39 46
23 24 32 30 28 24 22 22 24 23 29 16 7 6 6 4 4 9 10 6 5 8 9 18 5 19 12 7 5 5 4 8 5 2 7 8 3 29 28 51 49 42 39 35 28 19 12 1 12 21 32 32 35 44
22 26 31 35 35 25 22 29 26 24 11 6 3 4 6 3 7 9 7 2 9 17 17 32 14 6 5 5 5 6 9 5 3 4 9 6 33 46 52 53 52 45 36 30 23 15 6 6 15 23 28 29 35 46
28 33 31 27 26 30 24 29 23 14 7 5 6 6 7 18 13 16 22 14 8 14 11 16 13 8 1 4 6 2 3 9 10 8 6 26 16 42 52 50 48 43 37 29 20 11 3 11 17 19 29 31 36 38
33 29 22 23 26 32 32 26 18 8 5 5 4 4 11 10 22 17 13 12 10 11 9 8 6 4 5 6 7 12 8 9 2 6 19 18 1 39 46 43 40 37 32 24 12 7 3 5 15 22 26 34 32 41
23 18 28 21 26 29 36 25 12 3 5 6 11 18 25 15 8 7 9 12 10 7 5 8 3 5 8 5 6 3 5 6 8 22 20 20 27 29 27 27 21 19 17 11 8 3 6 6 18 26 29 33 35 39
21 26 30 23 37 39 29 19 9 9 12 16 12 15 18 19 8 4 3 7 5 9 12 5 6 2 4 5 2 2 13 16 16 19 22 7 9 12 13 25 12 6 8 9 9 7 11 16 29 28 25 30 34 44
27 26 32 28 33 17 8 9 6 6 17 16 20 24 21 15 15 21 19 14 10 13 13 11 8 6 6 7 17 3 13 13 16 18 11 11 11 11 11 10 9 26 29 21 11 12 15 26 28 22 18 25 33 47
27 23 28 34 30 6 5 6 8 6 7 6 14 15 13 20 25 19 18 21 22 13 12 8 11 13 7 11 6 9 2 8 6 5 16 17 12 17 31 5 12 9 5 6 12 14 22 26 16 15 23 32 42 51
27 25 21 19 11 2 1 3 7 8 8 7 13 15 12 18 21 30 28 28 25 16 16 27 36 39 35 41 44 37 34 27 31 23 21 28 23 19 16 16 25 20 27 25 21 17 24 22 29 33 35 41 45 43
29 25 16 9 4 2 5 4 8 15 7 10 14 10 11 11 23 32 34 28 40 48 49 50 54 54 55 55 53 52 47 43 41 42 40 38 41 43 36 35 33 30 26 15 15 21 29 34 40 41 43 39 42 23
21 11 4 3 2 4 5 4 4 4 3 7 6 4 7 8 12 25 12 27 42 49 52 57 59 61 62 63 60 59 53 48 51 53 51 50 46 41 39 37 36 35 33 35 36 30 26 29 36 33 33 30 22 6
10 3 1 2 4 6 4 2 2 5 7 6 4 7 6 7 12 11 8 36 39 8 13 14 19 22 27 35 34 41 51 59 65 64 62 60 56 53 52 50 45 41 38 35 34 33 32 32 30 30 25 18 9 20
4 2 2 5 5 5 4 5 7 5 6 5 3 8 9 6 2 5 5 6 20 12 2 8 17 25 39 47 48 49 37 33 32 34 37 28 53 66 60 54 44 40 44 43 39 41 39 35 25 29 24 16 30 19
2 5 10 7 8 8 7 5 7 7 5 6 11 10 3 2 4 8 4 10 14 30 34 44 49 46 47 51 52 53 57 54 54 51 45 45 44 45 36 29 35 35 42 51 48 48 49 43 34 33 26 31 32 23
4 7 7 9 10 15 11 11 18 8 5 5 4 10 1 3 7 4 8 24 46 44 51 53 57 55 52 48 43 41 44 47 61 69 66 59 51 48 49 52 46 48 27 27 44 54 52 52 44 42 35 38 41 28
10 9 9 22 12 17 11 10 6 4 3 6 1 3 6 4 4 13 27 42 42 50 59 53 40 37 38 41 40 38 37 38 34 43 64 78 76 75 73 68 64 59 59 50 28 43 54 47 42 42 39 46 43 36
10 16 19 16 13 7 5 3 3 9 9 12 4 4 6 7 29 32 28 39 43 41 44 41 33 29 32 36 39 38 41 37 43 44 49 54 54 69 73 76 81 66 60 55 46 32 34 34 31 25 37 48 51 38
6 21 9 7 5 4 9 9 11 19 13 9 7 10 16 20 14 17 31 40 39 36 32 32 33 34 35 34 45 37 31 33 34 38 34 40 41 23 22 41 55 49 48 44 44 40 37 35 29 24 28 46 60 43
14 10 7 7 7 5 3 18 8 14 16 16 23 20 23 14 15 22 39 49 51 50 47 44 40 36 34 34 29 31 32 24 14 23 40 28 21 27 29 35 50 48 42 46 48 43 37 41 29 13 30 59 51 24
5 6 8 6 4 16 21 6 14 4 5 11 19 31 35 16 18 34 54 62 61 56 48 46 50 50 44 47 35 17 22 26 23 17 23 18 20 7 14 32 43 44 45 49 45 38 42 43 34 24 50 55 49 34
8 11 14 12 3 6 12 9 12 10 2 12 19 29 33 26 14 33 53 61 64 60 52 53 50 42 42 44 36 31 13 12 10 17 31 27 17 14 16 24 29 38 45 55 47 35 31 49 43 26 55 67 46 32
Wind_Direction_850mb
219 210 216 218 220 218 216 215 215 218 219 219 222 228 230 228 224 196 180 198 226 234 253 356 39 27 36 48 120 339 70 16 46 80 125 221 183 238 178 238 178 184 146 181 99 143 278 199 124 167 222 187 343 12
210 204 205 211 215 214 211 208 209 211 212 213 213 220 224 217 210 181 178 186 204 223 233 240 222 277 316 357 4 24 112 114 99 93 59 107 280 17 145 254 359 253 178 181 167 211 256 176 46 162 340 76 55 25
193 196 200 206 214 215 209 205 204 207 208 210 211 212 214 210 196 179 167 202 221 249 262 251 234 253 258 292 285 267 116 126 121 97 130 168 207 121 130 227 6 343 125 80 87 325 269 260 220 176 117 90 80 17
188 190 192 197 207 208 196 200 201 204 207 209 210 209 207 204 193 176 154 157 170 210 263 286 226 203 223 275 295 279 184 149 139 148 122 120 184 162 196 187 139 249 52 133 341 344 75 87 122 139 78 37 12 12
186 193 195 197 192 197 194 191 196 201 206 208 209 208 204 200 195 186 153 169 187 193 256 269 172 198 226 258 278 272 243 235 205 174 114 212 210 132 349 72 212 168 177 145 200 167 128 119 108 86 54 47 71 48
187 183 189 193 197 197 201 193 194 198 203 206 207 206 203 197 188 168 190 219 225 224 304 338 251 193 205 236 269 195 194 250 208 197 205 221 206 166 137 179 249 135 107 163 166 156 133 138 98 77 70 50 63 53
184 188 189 197 197 198 200 191 194 196 197 199 202 203 200 193 184 178 170 182 201 188 225 297 288 193 206 213 191 193 197 212 218 217 231 247 210 169 128 192 223 277 274 189 167 161 116 84 67 79 67 47 27 10
206 192 192 190 194 199 198 193 192 193 190 188 188 190 191 191 188 170 141 150 175 182 197 195 267 163 195 180 198 192 191 207 226 236 251 229 230 183 236 234 234 234 243 156 139 129 120 115 103 60 33 12 8 10
169 174 172 182 191 190 192 189 183 179 177 172 164 157 148 155 147 172 174 171 176 171 207 233 167 220 181 193 190 182 191 146 216 204 228 172 241 218 224 207 214 223 220 163 136 131 125 99 73 46 22 4 359 1
177 167 169 166 164 167 169 165 167 165 158 151 140 114 127 135 141 145 160 191 198 205 222 244 259 245 189 184 189 182 181 203 180 231 182 157 247 238 239 248 224 252 183 163 137 120 108 90 69 44 14 7 355 345
181 181 176 171 163 156 150 152 155 150 141 131 102 90 136 140 142 161 172 178 196 232 205 228 216 220 51 144 199 203 185 174 180 257 151 215 262 236 248 243 255 203 174 153 138 122 112 97 71 24 352 344 335 329
196 185 183 182 174 170 168 163 151 152 134 125 115 119 134 141 153 151 222 263 177 218 203 205 209 197 173 184 173 145 179 100 223 197 145 246 238 235 243 242 188 155 142 139 143 134 116 97 33 339 332 333 330 324
184 186 190 182 177 173 169 164 160 148 135 117 103 119 157 139 70 176 190 238 225 227 219 177 123 169 166 181 117 82 158 226 295 27 225 226 235 173 185 156 146 149 148 139 129 121 110 150 300 318 326 333 332 338
164 165 168 172 168 160 161 167 161 153 124 100 119 35 147 247 230 199 217 228 331 350 351 167 125 117 114 112 146 129 233 105 243 223 215 232 170 158 155 155 155 152 151 145 137 137 143 282 310 337 350 343 343 345
164 154 148 153 165 171 165 168 165 151 105 118 151 192 229 237 268 304 320 283 1 19 53 121 98 112 93 141 182 198 236 226 200 219 259 313 289 180 165 161 154 147 147 142 147 161 191 302 331 358 6 5 359 354
145 149 158 177 184 173 171 163 164 127 63 56 279 273 274 278 265 277 320 352 358 354 51 57 83 102 203 200 185 207 200 187 25 11 21 45 223 175 150 150 149 149 152 151 173 190 252 278 331 323 324 334 353 360
147 175 165 154 160 167 178 182 168 111 192 241 247 238 256 292 303 287 306 31 26 59 53 29 79 178 299 229 221 35 80 125 59 41 54 85 92 107 114 118 130 138 143 162 187 281 329 302 311 319 298 313 331 339
126 141 160 165 136 132 141 150 144 191 234 245 258 247 237 220 229 238 255 324 323 124 136 168 352 17 307 265 64 175 78 43 22 17 28 8 201 155 133 131 120 278 184 217 235 295 321 331 335 319 290 298 319 331
134 128 152 146 142 136 142 174 202 236 236 248 259 274 275 278 257 261 264 240 194 187 169 179 213 216 233 79 133 156 43 9 347 357 346 315 275 243 206 133 263 249 241 215 219 281 303 331 343 326 286 297 322 332
134 125 122 147 150 154 170 192 210 256 265 266 280 288 283 275 264 258 246 228 217 186 180 202 203 216 207 103 12 294 334 342 313 339 312 345 301 327 223 310 332 102 168 207 235 267 300 335 331 290 309 319 329 330
140 149 139 139 153 81 206 219 231 253 298 275 291 304 280 252 267 250 247 240 229 219 224 239 249 254 264 275 279 286 287 274 273 266 263 264 276 271 294 299 270 263 288 291 299 309 298 317 318 313 314 316 324 325
140 129 115 91 87 8 273 245 272 305 271 273 291 262 262 260 248 243 248 238 236 242 245 252 258 263 267 269 268 266 265 265 265 261 254 253 248 255 258 253 267 269 263 269 278 285 293 298 300 306 309 314 321 319
130 127 85 87 282 263 264 273 281 298 313 289 287 280 253 230 238 261 220 239 248 256 259 261 266 269 271 278 281 281 278 275 270 268 267 264 259 255 257 261 255 258 267 270 272 274 275 294 302 304 307 310 324 303
147 136 112 240 234 269 246 259 261 296 287 283 276 271 254 242 258 243 234 251 262 257 220 247 271 287 278 270 275 277 275 279 271 268 268 266 257 251 258 261 258 255 258 263 265 271 278 284 291 294 291 313 165 146
331 221 244 260 235 261 229 224 197 247 250 174 204 269 248 226 312 277 247 97 115 122 107 293 305 315 310 300 295 286 273 266 259 261 250 249 250 247 255 261 258 255 255 257 261 264 268 274 272 280 273 204 180 190
328 228 206 232 211 205 212 155 224 241 244 216 233 256 342 58 242 256 50 62 19 339 324 320 318 313 306 298 293 283 273 260 255 261 250 250 253 247 243 247 249 252 252 251 259 261 267 267 257 256 255 203 208 219
296 261 234 248 273 297 292 278 288 265 260 252 306 344 36 245 245 77 20 332 332 325 320 314 308 302 295 294 294 295 295 282 259 254 253 250 248 243 246 241 233 238 228 252 248 254 261 260 256 248 238 211 208 217
253 276 231 286 249 257 244 266 246 258 14 39 77 348 303 296 301 353 326 314 313 312 305 308 306 299 292 293 295 294 299 297 291 267 257 250 247 243 242 240 241 236 235 237 263 248 246 248 251 247 228 214 208 190
253 287 319 313 326 296 304 338 10 44 23 341 295 288 284 280 314 320 329 322 316 317 315 310 304 302 294 292 288 290 296 293 281 261 255 258 257 250 245 238 235 238 253 250 245 244 239 240 232 236 232 221 199 192
280 334 329 303 290 286 10 31 22 344 107 58 13 322 300 299 324 347 350 349 342 338 338 332 319 311 314 315 306 303 304 288 276 261 266 268 263 255 262 230 220 228 228 223 216 218 222 220 202 203 223 210 197 209
307 323 295 254 248 269 299 313 27 70 61 32 15 355 354 331 332 352 359 5 13 15 17 21 21 12 353 340 321 309 301 300 305 321 311 296 249 240 234 229 219 218 213 205 209 217 219 208 194 174 214 194 196 201
255 238 276 276 15 288 300 143 151 141 38 19 15 11 8 3 343 356 11 17 21 21 22 9 354 3 7 8 8 341 292 289 283 268 184 247 258 238 247 204 191 198 206 212 215 215 213 210 201 208 192 188 201 213
235 274 277 300 191 266 187 175 196 163 127 15 18 16 16 4 354 354 11 26 24 22 13 11 29 27 9 11 15 20 14 312 274 232 209 193 191 221 218 187 190 203 209 207 203 202 215 228 207 196 191 198 215 218